Temp
11 11 11 10 10 10 11 12 14 14 14 13 14 14 14 14 14 15 16 16 16 16 15 15 14 14 14 14 14 14 14 14 13 14 13 14 14 13 13 13 13 12 12 12 12 11 11 11 11
10 11 10 10 9 10 11 13 14 13 14 14 14 14 14 14 14 15 15 16 16 16 15 15 14 14 14 13 14 14 14 14 14 14 14 14 13 13 13 13 13 12 12 12 12 11 11 11 11
9 10 10 9 8 10 12 13 14 14 14 14 14 14 14 15 14 15 16 16 15 15 15 15 14 14 14 13 13 14 14 14 14 14 13 14 13 13 13 13 12 12 12 12 12 11 11 11 10
9 9 9 9 10 12 13 13 13 13 14 14 14 13 14 14 15 15 15 15 15 15 15 14 14 14 14 13 13 13 13 14 13 13 13 13 13 13 13 13 13 12 12 12 12 11 11 11 10
8 8 8 9 11 10 12 12 12 13 14 14 13 13 14 14 15 15 15 15 15 14 15 14 14 13 13 13 13 13 13 13 13 13 13 13 13 13 13 13 13 13 12 12 12 11 11 11 11
7 8 8 8 11 11 12 12 12 13 14 14 14 14 15 15 14 14 14 15 14 14 15 14 14 13 13 13 13 13 13 13 13 13 13 13 13 13 13 12 12 12 12 12 11 11 11 11 11
7 7 8 9 10 10 11 12 12 13 13 14 14 14 15 15 14 14 15 13 13 14 15 14 14 13 13 12 12 13 13 13 13 13 13 13 13 13 13 12 12 12 12 12 11 11 11 11 11
6 6 7 8 9 10 10 11 12 12 13 13 13 14 15 15 15 15 16 13 13 14 15 14 13 13 13 13 13 12 13 13 13 13 13 13 13 13 13 12 12 12 12 12 12 11 11 11 11
6 5 6 7 8 9 9 10 11 11 12 13 14 15 14 14 14 14 16 15 13 14 15 14 14 13 13 13 13 13 13 13 13 13 13 13 13 13 13 13 13 12 12 12 12 12 11 11 12
5 5 5 6 7 8 9 10 11 11 12 13 15 15 14 14 14 14 16 15 15 15 15 14 13 13 13 13 13 13 13 13 13 13 13 13 13 13 13 12 12 12 12 12 12 12 11 12 12
4 4 5 5 6 7 8 10 10 10 12 14 15 15 14 14 14 14 15 14 14 15 15 14 13 13 13 13 13 13 13 13 13 13 13 13 13 13 12 12 12 12 12 12 12 12 12 12 11
3 3 3 5 5 6 8 8 10 11 11 13 12 13 14 14 14 14 15 15 15 14 14 13 13 13 13 13 13 13 13 13 12 13 13 12 12 12 12 12 12 12 12 11 11 11 12 12 11
3 2 2 3 5 6 7 8 9 11 11 11 13 13 14 14 14 14 13 13 14 14 13 13 13 12 13 12 12 12 12 12 12 12 12 12 11 11 11 11 11 12 11 11 11 11 11 11 11
1 1 2 4 5 5 7 8 9 11 11 11 12 14 14 14 13 13 13 14 14 14 13 13 13 12 13 13 12 12 12 12 12 12 11 12 12 12 12 12 11 11 11 11 11 11 10 10 10
1 1 1 3 4 5 6 7 10 11 11 11 12 13 13 13 13 13 14 14 13 13 13 13 13 13 12 12 12 12 12 12 12 12 11 11 11 11 11 11 11 11 10 10 10 10 10 10 10
-1 -0 1 2 4 4 5 10 9 10 11 11 12 12 13 12 12 12 13 13 13 13 13 13 14 13 13 13 12 11 11 11 11 10 10 11 11 11 11 10 10 10 10 10 10 10 10 10 10
-2 -1 0 1 3 4 5 7 9 10 11 11 12 12 13 13 12 13 12 12 13 12 13 12 13 13 13 13 13 12 12 11 10 11 11 11 10 10 9 9 9 9 10 10 10 9 9 9 9
-2 -2 -0 1 3 4 6 6 7 9 10 11 12 11 13 13 13 13 12 12 12 12 12 12 12 12 12 12 13 12 13 12 11 10 10 10 9 9 7 9 9 10 9 9 9 9 8 9 9
-2 -2 -1 1 3 3 6 5 7 9 9 10 11 12 13 13 12 12 12 12 12 11 12 12 11 11 11 11 11 11 12 12 12 10 9 9 8 8 8 9 9 9 8 8 8 8 9 9 8
-3 -2 -0 1 3 2 4 5 6 8 9 10 10 12 13 13 12 12 12 12 12 11 12 11 12 10 10 10 10 10 10 11 13 11 10 8 8 7 7 7 8 8 8 8 8 9 8 7 7
-3 -2 -1 -0 2 2 3 4 6 8 9 10 9 12 12 12 12 12 11 12 11 11 11 11 11 11 10 10 9 8 9 10 10 10 9 8 7 7 7 7 8 8 8 8 8 7 7 7 7
-4 -3 -2 -1 -1 1 3 4 7 8 9 9 9 10 11 11 11 11 11 11 11 11 11 11 10 11 11 9 7 7 7 8 8 7 4 5 7 7 7 7 8 8 8 8 8 7 7 7 7
-4 -3 -2 -1 -1 -1 3 4 8 8 9 9 9 10 10 11 10 11 11 11 10 10 11 10 10 10 9 9 9 8 7 7 6 5 6 7 7 8 8 8 8 8 7 7 7 7 7 7 6
-3 -3 -2 -2 -1 -1 3 5 7 8 9 10 10 10 10 10 11 10 10 10 10 10 10 10 10 10 9 8 7 7 7 6 6 5 6 7 8 8 8 8 8 7 7 7 6 7 7 6 6
-3 -3 -3 -2 -1 -0 4 4 8 9 10 10 10 9 9 10 10 10 10 10 10 10 10 10 10 9 8 7 8 7 7 7 6 7 7 8 8 8 8 8 7 7 7 7 6 6 7 6 5
-3 -3 -2 -2 -1 -0 4 4 7 9 10 10 11 10 10 10 10 10 10 9 10 9 9 9 9 9 8 8 8 8 7 7 7 7 7 8 8 7 7 7 7 7 6 6 6 7 6 6 6
-3 -3 -1 -2 0 2 5 7 8 9 9 10 11 10 10 10 10 10 9 9 9 9 9 9 9 8 8 8 8 8 7 7 7 7 7 7 7 7 6 6 6 6 6 6 7 7 6 6 5
-2 -2 -3 -3 -1 2 3 6 8 8 9 10 10 10 10 11 10 9 8 9 9 9 9 9 9 9 8 8 8 8 7 7 7 7 7 7 7 6 6 6 7 7 7 7 7 6 6 6 6
-3 -3 -2 -2 -0 1 1 6 8 9 10 10 10 10 10 10 9 8 8 9 9 9 9 9 8 8 8 8 8 8 8 7 7 7 7 7 7 7 7 7 7 7 7 6 6 6 6 6 5
-2 -3 -2 -2 1 4 7 6 9 9 10 10 10 10 10 10 9 9 9 8 8 8 9 9 8 8 8 8 8 8 7 7 8 7 7 7 7 7 7 7 7 7 6 6 6 6 5 5 5
Height
3129 3133 3136 3140 3147 3141 3139 3143 3146 3146 3149 3149 3151 3153 3153 3153 3154 3157 3154 3155 3155 3156 3158 3159 3162 3164 3168 3171 3173 3176 3180 3183 3185 3187 3190 3192 3194 3195 3196 3196 3197 3197 3197 3197 3198 3197 3197 3195 3194
3124 3129 3132 3133 3136 3133 3133 3139 3144 3146 3147 3149 3150 3151 3151 3151 3152 3152 3153 3154 3154 3156 3158 3160 3162 3166 3168 3171 3175 3178 3181 3184 3187 3189 3191 3193 3195 3196 3197 3197 3198 3198 3198 3198 3198 3198 3197 3196 3195
3120 3124 3128 3126 3124 3123 3130 3136 3142 3145 3146 3146 3147 3147 3149 3150 3148 3150 3150 3152 3153 3156 3157 3160 3163 3167 3169 3172 3176 3179 3182 3185 3188 3190 3192 3194 3196 3196 3197 3198 3199 3199 3199 3198 3198 3198 3197 3196 3195
3115 3119 3120 3115 3113 3120 3127 3134 3140 3143 3145 3145 3144 3146 3148 3148 3146 3146 3148 3148 3153 3156 3156 3160 3163 3167 3170 3174 3177 3180 3183 3185 3188 3191 3193 3194 3196 3198 3198 3199 3200 3199 3199 3198 3198 3197 3196 3195 3195
3108 3110 3110 3105 3109 3115 3126 3132 3136 3140 3142 3144 3143 3144 3146 3148 3147 3146 3147 3149 3152 3155 3156 3159 3163 3167 3170 3174 3178 3181 3184 3187 3189 3191 3194 3195 3196 3198 3198 3199 3199 3199 3199 3198 3197 3196 3195 3195 3195
3102 3102 3100 3097 3106 3113 3123 3129 3132 3135 3138 3141 3142 3143 3144 3145 3146 3148 3148 3149 3150 3155 3156 3158 3162 3166 3170 3174 3179 3183 3186 3188 3190 3192 3193 3194 3196 3197 3198 3198 3198 3198 3198 3198 3197 3196 3195 3194 3193
3093 3094 3092 3096 3104 3110 3117 3124 3127 3131 3134 3138 3140 3139 3139 3141 3144 3147 3147 3147 3150 3153 3155 3158 3162 3166 3170 3174 3179 3183 3185 3188 3189 3191 3192 3194 3195 3196 3197 3197 3198 3197 3197 3196 3196 3196 3195 3193 3192
3087 3089 3088 3093 3100 3106 3113 3119 3123 3127 3131 3135 3136 3135 3135 3141 3143 3145 3146 3148 3150 3152 3155 3158 3162 3166 3171 3174 3178 3182 3185 3187 3189 3190 3192 3193 3194 3195 3196 3197 3196 3196 3195 3194 3194 3193 3193 3192 3191
3082 3083 3081 3091 3098 3103 3110 3114 3119 3123 3126 3130 3133 3134 3135 3139 3143 3145 3145 3146 3147 3150 3154 3157 3161 3166 3170 3174 3178 3181 3184 3187 3189 3191 3192 3193 3194 3194 3195 3196 3196 3195 3194 3193 3193 3192 3191 3190 3189
3074 3072 3080 3089 3096 3102 3107 3110 3113 3118 3122 3125 3129 3131 3133 3135 3140 3143 3145 3146 3146 3150 3153 3155 3160 3165 3169 3173 3178 3182 3185 3188 3190 3192 3192 3193 3194 3194 3194 3195 3194 3194 3193 3192 3191 3191 3190 3190 3188
3067 3068 3078 3084 3092 3097 3102 3108 3110 3112 3117 3122 3126 3129 3132 3134 3137 3140 3144 3144 3148 3152 3153 3156 3159 3163 3169 3174 3178 3181 3185 3188 3189 3191 3192 3192 3193 3193 3193 3193 3192 3191 3191 3190 3190 3189 3189 3188 3186
3062 3065 3075 3082 3086 3091 3095 3102 3107 3109 3113 3117 3120 3125 3130 3132 3135 3140 3142 3144 3147 3151 3155 3157 3160 3165 3169 3173 3177 3180 3183 3186 3187 3188 3189 3190 3190 3191 3190 3190 3190 3189 3189 3188 3187 3187 3186 3185 3184
3059 3063 3068 3075 3082 3087 3090 3095 3101 3105 3110 3112 3116 3119 3126 3129 3134 3138 3140 3143 3147 3149 3154 3158 3161 3165 3169 3173 3176 3178 3180 3182 3183 3185 3186 3187 3187 3187 3187 3187 3187 3187 3185 3184 3183 3183 3183 3182 3182
3054 3058 3064 3069 3074 3081 3086 3089 3094 3101 3106 3108 3112 3117 3123 3127 3131 3136 3140 3142 3145 3149 3154 3158 3162 3166 3170 3173 3174 3176 3177 3178 3180 3182 3183 3185 3185 3185 3186 3185 3185 3183 3182 3181 3180 3180 3181 3180 3179
3050 3055 3059 3064 3070 3075 3083 3084 3075 3096 3100 3103 3108 3114 3120 3124 3127 3134 3139 3141 3145 3150 3153 3157 3161 3164 3167 3169 3171 3173 3174 3175 3178 3179 3181 3181 3182 3182 3183 3182 3180 3179 3178 3177 3177 3177 3178 3177 3175
3047 3051 3056 3060 3064 3071 3079 3063 3080 3090 3095 3099 3103 3109 3113 3119 3125 3131 3137 3140 3145 3148 3152 3155 3158 3161 3163 3166 3167 3169 3171 3175 3175 3174 3175 3177 3180 3180 3180 3178 3177 3175 3174 3174 3174 3175 3174 3172 3170
3046 3049 3052 3057 3062 3067 3068 3060 3074 3083 3089 3095 3098 3104 3107 3115 3122 3129 3134 3139 3143 3148 3152 3155 3157 3159 3163 3165 3166 3167 3169 3169 3170 3173 3173 3174 3175 3174 3174 3173 3172 3172 3172 3171 3170 3170 3168 3167 3165
3046 3048 3051 3053 3058 3061 3060 3059 3073 3078 3085 3092 3095 3098 3101 3110 3120 3127 3132 3137 3143 3148 3151 3155 3157 3160 3162 3164 3166 3168 3168 3167 3167 3167 3169 3171 3171 3170 3171 3170 3169 3167 3168 3167 3166 3165 3164 3162 3159
3045 3046 3048 3051 3053 3057 3054 3059 3066 3075 3081 3087 3091 3092 3099 3107 3116 3123 3131 3137 3142 3147 3150 3152 3155 3158 3160 3162 3165 3165 3165 3165 3163 3163 3164 3164 3163 3165 3167 3165 3165 3165 3164 3163 3162 3161 3160 3158 3152
3041 3043 3045 3047 3050 3051 3050 3052 3059 3068 3074 3081 3085 3089 3095 3103 3112 3121 3128 3134 3140 3145 3148 3150 3152 3155 3157 3159 3158 3159 3160 3162 3163 3160 3159 3161 3162 3155 3159 3161 3160 3159 3159 3157 3155 3154 3152 3150 3147
3037 3039 3043 3046 3047 3046 3048 3049 3054 3059 3068 3074 3077 3086 3095 3103 3110 3119 3127 3134 3138 3144 3147 3147 3151 3153 3154 3152 3154 3156 3160 3160 3160 3158 3157 3126 3148 3151 3155 3159 3159 3156 3151 3147 3147 3147 3147 3145 3143
3035 3038 3041 3044 3047 3045 3047 3046 3047 3054 3061 3068 3072 3081 3092 3102 3112 3120 3126 3132 3137 3141 3143 3144 3147 3147 3147 3145 3147 3149 3152 3155 3156 3146 3145 3151 3150 3156 3156 3157 3158 3156 3152 3146 3141 3140 3140 3137 3136
3034 3037 3040 3043 3046 3046 3042 3047 3041 3049 3056 3063 3068 3079 3091 3101 3110 3118 3125 3130 3134 3137 3139 3143 3143 3142 3142 3142 3142 3140 3146 3148 3141 3146 3150 3152 3154 3153 3157 3153 3152 3153 3149 3142 3136 3133 3133 3130 3128
3033 3035 3038 3041 3045 3043 3038 3040 3036 3041 3048 3057 3067 3078 3088 3098 3108 3116 3120 3127 3132 3134 3136 3139 3139 3141 3142 3143 3141 3138 3145 3143 3138 3147 3153 3155 3154 3151 3149 3147 3147 3145 3142 3137 3132 3127 3126 3125 3122
3030 3034 3037 3042 3041 3035 3036 3039 3030 3037 3046 3054 3061 3073 3085 3095 3103 3111 3117 3124 3129 3133 3136 3138 3139 3140 3142 3143 3144 3143 3143 3144 3148 3152 3153 3149 3146 3146 3144 3143 3142 3139 3137 3131 3126 3123 3121 3120 3117
3025 3028 3027 3031 3034 3031 3031 3030 3026 3034 3045 3056 3064 3073 3084 3092 3102 3109 3115 3121 3127 3130 3135 3137 3139 3139 3141 3142 3142 3144 3146 3149 3150 3151 3148 3144 3144 3145 3141 3138 3137 3134 3131 3127 3123 3119 3116 3115 3110
3020 3023 3025 3025 3023 3024 3024 3023 3025 3031 3043 3053 3062 3071 3081 3090 3098 3105 3112 3118 3123 3127 3132 3136 3138 3138 3139 3141 3143 3145 3146 3146 3145 3144 3142 3141 3140 3139 3135 3133 3132 3128 3127 3123 3120 3114 3111 3109 3106
3014 3021 3024 3025 3023 3022 3016 3017 3017 3026 3038 3050 3059 3068 3076 3087 3094 3103 3110 3115 3120 3125 3130 3134 3136 3137 3138 3142 3144 3145 3145 3145 3145 3143 3140 3138 3136 3133 3133 3130 3127 3126 3122 3118 3114 3111 3109 3107 3104
3010 3012 3018 3020 3018 3013 3014 3015 3018 3025 3034 3043 3055 3064 3073 3084 3092 3099 3106 3113 3119 3123 3129 3132 3134 3137 3140 3142 3142 3143 3143 3143 3141 3139 3138 3136 3134 3132 3130 3128 3123 3120 3117 3114 3110 3109 3107 3105 3102
3006 3009 3014 3014 3012 3006 3005 3015 3018 3026 3033 3042 3051 3061 3071 3081 3088 3097 3105 3112 3118 3122 3126 3129 3134 3137 3139 3140 3141 3142 3141 3140 3139 3138 3135 3132 3131 3129 3126 3122 3120 3118 3114 3111 3108 3107 3105 3104 3101
Wind_Speed
28 29 28 25 15 14 20 16 10 12 10 5 4 10 8 12 7 4 9 10 14 13 17 16 15 15 14 13 14 14 13 13 15 16 16 15 14 12 12 10 9 8 7 6 4 4 4 4 5
26 27 27 28 24 24 26 24 18 9 6 7 7 13 12 14 14 13 12 15 9 14 16 15 16 16 15 15 16 15 13 13 14 15 15 14 13 11 10 9 8 6 6 4 3 2 3 3 4
25 26 28 25 28 41 34 27 19 17 13 10 12 8 9 11 11 17 12 13 11 16 16 15 16 15 15 16 16 15 14 14 14 14 14 13 12 11 9 7 6 5 3 2 1 1 2 3 4
27 26 32 32 36 36 37 29 24 14 14 8 9 5 6 10 15 14 15 15 15 17 17 16 16 16 15 16 17 17 16 15 15 15 14 13 11 9 8 6 5 4 3 1 1 2 3 4 5
30 30 37 37 43 38 29 31 24 20 21 12 12 12 11 16 16 19 12 15 16 18 18 17 17 17 17 17 18 18 17 16 16 16 14 13 11 9 8 7 5 4 3 3 3 4 5 5 7
33 36 30 45 43 39 34 24 22 21 20 16 14 14 17 19 27 26 21 20 15 19 18 17 18 19 18 18 18 17 17 16 16 16 15 14 12 11 9 8 7 6 5 4 5 5 6 6 7
38 40 43 41 38 38 34 32 32 28 22 18 15 16 20 25 28 23 22 18 20 20 17 16 18 19 19 19 18 19 18 18 17 17 16 15 13 12 10 9 8 7 7 6 6 6 6 7 7
39 40 43 43 39 32 27 31 25 35 26 17 14 16 17 21 23 19 17 17 21 19 18 16 17 19 19 20 20 20 20 19 19 18 17 16 14 13 11 10 10 8 9 8 8 7 8 8 8
38 40 45 40 36 36 17 21 19 14 17 23 22 18 17 21 20 21 14 17 19 20 19 18 18 19 20 19 20 21 21 20 19 18 17 15 15 14 12 11 10 10 11 11 10 10 11 11 11
39 46 40 35 34 25 19 14 19 25 20 20 25 21 20 21 21 24 16 17 18 21 21 22 21 20 20 20 19 19 18 18 17 17 16 16 15 13 12 12 12 13 13 13 13 12 13 13 13
42 44 40 31 26 30 21 25 24 19 24 24 24 25 23 19 22 25 19 16 16 19 22 21 21 20 21 19 18 17 17 17 17 17 16 17 15 14 13 13 14 15 15 15 15 15 14 14 15
40 42 33 39 21 30 30 34 35 22 23 30 21 23 21 19 17 14 16 14 16 19 20 20 20 21 20 19 18 17 17 17 17 18 18 17 16 16 16 17 16 17 16 17 16 16 15 15 16
39 36 32 38 34 23 30 33 35 34 25 30 30 36 26 23 20 19 16 13 16 17 18 18 18 19 18 19 18 18 19 19 20 20 19 19 19 19 18 18 17 17 17 18 16 15 14 14 15
33 40 34 34 38 38 32 27 32 35 31 24 33 37 30 22 17 18 16 13 13 15 16 15 15 16 17 18 19 19 20 21 21 21 20 20 20 20 18 18 18 18 19 20 17 15 12 13 15
31 29 22 39 36 32 35 39 44 36 36 28 28 32 26 21 21 22 17 10 11 11 11 15 15 17 18 19 20 21 22 23 21 21 21 20 19 19 18 18 19 20 21 20 18 17 15 14 19
22 26 27 25 33 35 28 48 39 35 37 33 26 35 32 26 27 27 18 13 13 15 13 15 18 20 21 23 24 23 21 19 21 21 20 20 19 19 18 18 20 20 20 20 19 18 19 22 24
10 6 12 24 15 19 39 41 37 35 38 37 33 33 39 33 31 28 22 16 14 15 14 16 17 19 22 24 26 26 24 23 21 21 22 20 19 18 17 16 16 16 16 16 17 17 19 23 28
3 2 8 6 30 18 36 46 25 26 36 37 34 35 44 40 34 27 22 18 17 15 5 9 12 13 16 21 26 26 27 26 20 20 21 19 20 18 18 14 15 18 17 17 19 20 23 30 36
9 7 9 14 12 28 33 38 38 22 24 37 33 43 44 46 35 30 24 17 14 10 3 5 10 16 19 20 18 22 26 29 26 17 17 23 20 20 18 15 14 14 13 14 18 25 35 33 37
12 17 17 17 17 24 30 24 37 34 18 33 29 43 50 46 38 31 24 16 13 10 10 8 12 19 19 23 28 28 30 32 38 27 29 28 26 17 11 11 13 13 15 34 28 35 26 25 26
15 16 21 16 18 18 21 19 25 37 25 22 23 39 48 45 39 31 27 19 19 14 12 8 8 12 22 29 32 34 29 35 40 52 44 28 11 12 13 21 23 21 22 20 20 21 22 24 28
13 15 14 19 10 5 13 5 30 37 33 26 29 43 47 44 36 32 25 21 19 16 12 9 11 16 22 22 27 33 32 37 35 47 20 15 8 14 20 15 18 22 25 26 24 22 23 27 29
13 11 10 17 11 12 14 9 27 33 35 29 34 38 48 44 36 29 25 22 19 14 13 10 9 12 13 8 8 22 30 29 31 3 4 10 8 12 17 21 26 29 29 26 26 26 29 33 35
7 8 10 10 8 6 20 19 16 37 42 34 32 43 45 41 33 30 29 24 20 14 8 6 10 12 11 8 5 8 8 5 14 11 8 13 15 19 22 23 24 25 25 25 27 29 31 33 34
16 9 5 4 6 5 29 16 6 41 44 37 39 47 45 39 36 33 31 26 22 14 6 4 8 10 8 6 6 11 13 13 9 10 13 17 19 20 21 21 22 23 24 25 25 24 24 27 29
23 23 6 7 6 5 24 13 20 40 46 36 37 40 44 41 36 32 31 28 21 13 10 4 2 8 9 4 13 13 11 10 11 15 17 16 17 18 18 19 19 19 19 18 18 23 24 26 27
23 27 27 4 13 7 15 24 38 32 42 41 39 45 44 41 38 33 34 29 20 14 8 4 3 4 4 6 10 13 13 14 20 20 19 17 18 18 17 16 16 16 16 18 21 23 25 24 24
26 28 15 12 4 5 11 16 17 31 45 43 42 46 47 41 35 35 34 28 20 17 10 6 3 9 7 1 9 11 14 17 21 20 19 20 19 15 13 13 14 15 17 20 22 22 21 21 21
24 24 15 10 10 5 5 10 24 39 51 50 45 50 47 41 37 38 35 27 24 17 11 7 6 6 3 5 10 12 16 20 22 20 19 15 12 13 15 16 18 19 19 19 18 20 20 18 17
28 20 27 7 1 7 12 16 32 37 52 51 44 50 46 41 39 37 33 29 25 18 14 11 9 6 3 5 9 12 16 21 19 19 16 13 13 16 18 19 19 18 17 18 19 19 16 15 15
Wind_Direction
234 234 235 233 238 232 233 229 217 224 200 144 147 208 237 256 258 239 242 267 266 226 214 186 179 171 172 175 176 176 173 165 159 160 162 157 151 145 139 135 132 130 121 110 104 94 76 64 53
232 229 228 228 222 225 231 226 213 169 170 230 280 246 248 259 245 232 248 270 254 234 209 191 180 177 174 177 179 177 177 171 165 163 163 159 152 146 144 141 138 133 122 115 111 89 67 44 37
231 223 223 220 222 225 233 232 224 224 238 255 266 248 250 242 232 224 230 268 251 228 196 195 182 183 177 180 180 179 181 175 171 166 165 163 160 158 155 150 148 141 129 137 113 50 16 9 5
227 220 219 224 228 233 233 242 234 220 220 226 212 199 186 219 232 210 209 246 246 222 192 189 186 184 183 183 184 184 184 179 175 171 171 168 170 167 164 164 171 175 179 216 287 312 325 329 330
220 222 219 227 230 232 230 231 235 233 223 217 198 188 211 227 215 188 213 238 234 227 193 187 187 188 185 186 190 190 188 183 178 177 177 174 177 179 183 187 198 213 226 242 271 286 301 316 326
218 220 221 227 231 233 231 227 216 208 205 223 232 235 223 215 230 237 263 217 220 224 195 186 189 191 189 189 193 194 191 187 185 183 183 183 187 193 200 204 211 219 231 241 256 269 288 304 316
220 221 226 234 236 236 231 229 224 227 231 219 226 248 230 215 230 236 236 204 216 208 191 190 192 195 193 190 194 196 195 192 191 191 191 191 195 200 207 211 214 224 234 242 251 269 283 288 296
221 224 229 232 235 239 238 236 241 237 231 228 216 222 199 202 217 212 217 222 208 200 186 190 199 199 199 194 193 198 199 198 198 197 197 199 201 207 213 220 225 231 239 248 253 259 269 276 286
221 224 229 229 233 234 244 236 227 190 211 217 216 205 195 196 213 212 215 221 206 194 186 187 194 202 201 198 199 200 202 203 205 204 206 205 208 213 222 232 242 246 250 256 259 264 270 280 289
218 226 228 230 235 229 216 200 205 211 210 199 210 228 217 201 212 228 219 224 204 199 188 188 194 200 203 200 201 204 207 209 211 214 213 215 221 225 232 241 248 254 260 265 270 274 280 288 294
220 229 222 227 224 230 221 196 182 177 197 188 194 211 190 191 203 215 215 219 216 209 194 193 194 197 201 201 201 202 208 213 215 219 221 224 229 234 240 247 254 259 264 272 277 280 282 286 289
221 228 222 223 215 220 224 224 215 194 181 183 181 188 203 210 203 220 210 217 213 206 205 200 204 201 200 201 202 202 207 212 218 221 223 228 233 238 243 247 255 263 269 272 277 283 285 286 289
228 226 230 225 222 222 228 229 220 205 180 180 187 194 201 201 202 216 209 204 205 204 208 207 207 206 202 206 206 206 209 212 218 224 226 229 233 238 242 250 257 264 267 269 272 276 277 285 296
230 235 227 232 229 223 229 226 225 203 192 183 184 183 184 181 208 205 188 167 182 196 203 208 212 213 210 210 211 210 212 217 220 226 230 235 240 246 253 258 265 267 270 272 273 273 274 288 306
228 237 239 235 232 232 226 235 219 200 197 195 187 188 188 199 208 190 188 204 179 183 188 203 210 212 212 212 216 218 218 220 225 231 236 240 245 249 254 258 261 265 270 273 271 264 264 289 304
230 236 236 235 239 233 226 234 225 211 209 196 190 188 188 207 207 191 200 197 198 205 204 203 209 216 217 220 219 221 227 233 233 234 240 245 253 257 260 258 258 261 265 270 271 272 276 295 310
246 229 247 232 233 226 223 236 229 215 211 203 198 199 192 197 202 203 198 198 206 211 219 223 215 219 230 231 232 230 229 229 242 252 252 250 253 255 262 261 266 278 279 279 278 282 296 302 307
151 227 221 248 217 220 226 239 222 215 217 204 207 213 193 188 194 203 206 200 201 213 217 247 254 247 248 249 247 248 246 240 237 249 257 263 259 254 267 267 281 282 287 286 288 294 307 316 310
229 225 226 220 187 219 237 240 235 204 212 211 213 213 201 191 197 199 206 200 192 189 256 291 250 253 256 260 268 267 257 251 241 243 256 255 252 267 267 280 293 293 286 290 306 319 317 305 296
253 240 224 220 200 222 227 246 233 221 191 211 225 210 205 193 192 200 203 201 197 219 247 261 252 245 255 262 257 254 252 252 252 241 242 254 258 246 287 307 317 309 302 319 303 306 301 301 302
242 244 232 234 221 231 238 256 231 214 200 205 205 202 199 193 195 200 194 200 196 206 223 245 259 266 263 264 265 262 248 257 263 256 250 293 272 319 322 328 308 308 310 316 315 303 298 298 299
247 247 238 226 265 269 195 261 230 214 195 206 199 192 189 196 198 199 195 186 182 189 222 253 277 278 274 269 268 260 256 256 267 261 243 286 323 304 298 303 301 300 302 307 308 304 298 299 299
246 253 222 226 249 291 225 233 229 211 197 201 190 190 189 192 193 192 182 181 177 191 231 264 281 270 257 275 283 256 254 271 260 83 20 11 344 304 300 304 304 303 303 306 307 306 305 304 301
142 204 206 232 227 236 217 213 207 198 191 187 185 183 184 183 175 174 181 179 183 201 230 281 232 238 247 266 292 83 63 1 25 31 357 329 314 306 305 307 307 307 307 307 307 306 306 307 307
192 174 166 196 202 239 211 229 175 199 191 184 178 183 180 172 174 178 179 179 186 185 183 204 231 226 221 124 86 48 37 36 33 353 331 321 320 316 314 313 310 310 308 307 310 313 317 319 320
194 189 198 161 179 221 201 221 212 198 192 183 178 176 173 177 176 175 178 181 177 167 165 153 138 214 185 165 49 37 29 11 356 345 335 328 318 312 311 316 312 312 316 317 319 321 323 323 325
198 205 216 290 215 184 176 208 211 192 187 178 179 172 175 178 174 179 180 179 177 173 167 164 148 112 145 109 23 13 4 351 349 340 335 328 330 320 320 313 310 317 317 323 327 330 330 332 333
217 208 199 227 191 222 203 206 190 186 180 177 177 175 176 176 177 179 184 180 175 171 172 199 81 63 88 101 342 349 352 348 339 335 338 339 332 331 328 336 343 336 336 336 334 335 338 338 339
194 201 203 209 237 197 141 199 198 177 180 177 175 177 179 178 179 178 181 182 181 179 192 193 136 107 109 334 338 339 339 338 335 337 335 330 340 342 346 344 347 341 339 338 341 342 344 351 355
215 215 206 212 312 233 159 171 188 180 182 181 177 178 181 182 184 185 189 186 183 187 193 170 176 167 232 321 328 319 326 329 331 327 327 329 339 342 341 345 342 340 346 348 346 348 360 360 5